TimeMDT,TemperatureF,Dew PointF,Humidity,Sea Level PressureIn,VisibilityMPH,Wind Direction,Wind SpeedMPH,Gust SpeedMPH,PrecipitationIn,Events,Conditions,WindDirDegrees,DateUTC
12:53 AM,50.0,45.0,83,30.30,10.0,ENE,4.6,-,N/A,,Clear,60,2013-07-26 06:53:00
1:53 AM,48.0,45.0,89,30.30,10.0,NE,5.8,-,N/A,,Clear,50,2013-07-26 07:53:00
2:53 AM,48.0,45.0,89,30.30,10.0,ENE,5.8,-,N/A,,Clear,70,2013-07-26 08:53:00
3:53 AM,46.0,44.1,93,30.32,10.0,Calm,Calm,-,N/A,,Clear,0,2013-07-26 09:53:00
4:01 AM,46.4,44.6,93,30.29,10.0,East,5.8,-,N/A,,Partly Cloudy,80,2013-07-26 10:01:00
4:26 AM,46.4,44.6,93,30.30,10.0,ENE,3.5,-,N/A,,Mostly Cloudy,60,2013-07-26 10:26:00
4:53 AM,48.0,46.0,93,30.30,10.0,ENE,5.8,-,N/A,,Overcast,70,2013-07-26 10:53:00
5:40 AM,48.2,46.4,93,30.31,10.0,ENE,5.8,-,N/A,,Overcast,70,2013-07-26 11:40:00
5:53 AM,48.9,46.9,93,30.32,8.0,East,6.9,-,N/A,,Overcast,80,2013-07-26 11:53:00
6:07 AM,50.0,48.2,94,30.32,1.8,East,12.7,-,N/A,,Overcast,80,2013-07-26 12:07:00
6:18 AM,50.0,48.2,94,30.33,1.0,East,9.2,-,N/A,,Overcast,90,2013-07-26 12:18:00
6:25 AM,50.0,48.2,94,30.33,1.2,East,10.4,-,N/A,,Overcast,80,2013-07-26 12:25:00
6:48 AM,50.0,48.2,94,30.34,2.5,East,6.9,-,N/A,,Overcast,100,2013-07-26 12:48:00
6:53 AM,50.0,48.9,96,30.35,3.0,East,5.8,-,N/A,,Overcast,100,2013-07-26 12:53:00
7:27 AM,51.8,48.2,88,30.35,2.0,ESE,5.8,-,N/A,,Overcast,120,2013-07-26 13:27:00
7:39 AM,51.8,48.2,88,30.35,3.0,East,6.9,-,N/A,,Overcast,90,2013-07-26 13:39:00
7:53 AM,51.1,48.9,92,30.35,3.0,East,6.9,-,N/A,,Overcast,80,2013-07-26 13:53:00
8:45 AM,53.6,50.0,88,30.34,9.0,East,8.1,-,N/A,,Overcast,90,2013-07-26 14:45:00
8:53 AM,53.1,50.0,89,30.35,10.0,ESE,11.5,-,N/A,,Overcast,110,2013-07-26 14:53:00
9:12 AM,55.4,48.2,77,30.33,10.0,East,11.5,-,N/A,,Overcast,100,2013-07-26 15:12:00
9:29 AM,57.2,48.2,72,30.33,10.0,ESE,10.4,-,N/A,,Overcast,110,2013-07-26 15:29:00
9:53 AM,57.0,48.0,72,30.34,10.0,ESE,8.1,-,N/A,,Overcast,120,2013-07-26 15:53:00
10:53 AM,61.0,48.0,62,30.34,10.0,East,12.7,17.3,N/A,,Overcast,100,2013-07-26 16:53:00
11:20 AM,62.6,46.4,55,30.32,10.0,ESE,8.1,-,N/A,,Overcast,110,2013-07-26 17:20:00
11:53 AM,64.0,46.9,54,30.33,10.0,East,8.1,-,N/A,,Overcast,80,2013-07-26 17:53:00
12:53 PM,64.9,46.0,50,30.31,10.0,East,9.2,-,N/A,,Mostly Cloudy,90,2013-07-26 18:53:00
1:53 PM,68.0,45.0,43,30.29,10.0,ESE,6.9,-,N/A,,Mostly Cloudy,120,2013-07-26 19:53:00
2:53 PM,70.0,45.0,41,30.27,10.0,East,11.5,18.4,N/A,,Partly Cloudy,80,2013-07-26 20:53:00
3:53 PM,72.0,45.0,38,30.25,10.0,East,9.2,19.6,N/A,,Clear,90,2013-07-26 21:53:00
4:53 PM,73.0,45.0,37,30.23,10.0,East,12.7,-,N/A,,Clear,80,2013-07-26 22:53:00
5:53 PM,72.0,45.0,38,30.22,10.0,East,17.3,21.9,N/A,,Clear,80,2013-07-26 23:53:00
6:53 PM,71.1,44.1,38,30.21,10.0,East,16.1,-,N/A,,Clear,80,2013-07-27 00:53:00
7:53 PM,68.0,45.0,43,30.22,10.0,East,11.5,-,N/A,,Clear,80,2013-07-27 01:53:00
8:53 PM,62.1,45.0,53,30.23,10.0,East,10.4,-,N/A,,Clear,80,2013-07-27 02:53:00
9:53 PM,55.9,45.0,67,30.23,10.0,ENE,5.8,-,N/A,,Clear,70,2013-07-27 03:53:00
10:53 PM,53.1,45.0,74,30.23,10.0,ENE,8.1,-,N/A,,Clear,70,2013-07-27 04:53:00
11:53 PM,50.0,44.1,80,30.23,10.0,ENE,5.8,-,N/A,,Clear,70,2013-07-27 05:53:00